Lexington Weather

Lexington, Massachusetts, USA

70°F
8/17/2022 6:46pm 
  • Lexington Conditions: Overcast
  • Temperature: 69.8°F / 21.0°CColder 0.2°F than last hour.
  • Dew Point: 57.9°FDecreased 1.1°Fsince last hour.
  • Relative Humidity: 66%Decreased 2.0% since last hour.
  • Wind: Calm, 10-min avg: Calm, gust: 2 mph
  • Barometer: 29.85 in Steady
  • Visibility: 10 miles
  • Rain Today: 0.00 in
  •   

Regional Weather Roundup
for Boston, MA

        
000
ASUS41 KBOX 171110
RWRBOX

REGIONAL WEATHER ROUNDUP
NATIONAL WEATHER SERVICE BOSTON/NORTON MA
700 AM EDT WED AUG 17 2022

NOTE:  "FAIR" INDICATES FEW OR NO CLOUDS BELOW 12,000 FEET WITH NO 
SIGNIFICANT WEATHER AND/OR OBSTRUCTIONS TO VISIBILITY.

MAZALL-171200-
EASTERN MASSACHUSETTS
  
CITY           SKY/WX    TMP DP  RH WIND       PRES   REMARKS
BOSTON         CLOUDY    67  60  78 N9        29.99R                  
BEVERLY        CLOUDY    64  60  87 N6        29.99R                  
LAWRENCE       MOSUNNY   67  59  75 N8        30.02R                  
BEDFORD        PTSUNNY   64  59  83 N5        29.99R                  
BLUE HILL      NOT AVBL                                               
NORWOOD        CLOUDY    65  32  29 NW3       29.99R                  
MARSHFIELD     MOSUNNY   66  64  94 VRB5      29.96S                  
PLYMOUTH       CLOUDY    63  62  97 NW8       29.96S                  
TAUNTON          N/A    N/A N/A N/A MISG      29.97S                  
NEW BEDFORD    CLOUDY    63  62  97 NW3       29.96S                  
$$

MAZALL-171200-
CAPE COD AND THE ISLANDS
  
CITY           SKY/WX    TMP DP  RH WIND       PRES   REMARKS
FALMOUTH       MOSUNNY   64  63  94 N8        29.95S                  
HYANNIS        PTSUNNY   67  63  87 N9G18     29.92S                  
CHATHAM        LGT RAIN  66  63  90 VRB6      29.93F                  
NANTUCKET      PTSUNNY   68  64  87 N13       29.92S                  
MARTHAS VNYRD  LGT RAIN  66  63  90 N9        29.94S                  
$$
 
MAZALL-171200-
CENTRAL AND WESTERN MASSACHUSETTS
  
CITY           SKY/WX    TMP DP  RH WIND       PRES   REMARKS
WORCESTER      CLOUDY    65  56  72 N6        30.02S                  
FITCHBURG      CLOUDY    66  56  70 CALM      30.02S                  
ORANGE         CLOUDY    64  58  80 CALM      30.04S                  
SPRINGFIELD    CLOUDY    63  57  82 CALM      30.00S                  
WESTFIELD      CLOUDY    67  57  70 N5        30.02S                  
NORTH ADAMS    LGT RAIN  60  59  96 CALM      30.07R                  
PITTSFIELD     CLOUDY    60  56  86 CALM      30.06R                  
$$
 
RIZALL-171200-
RHODE ISLAND
  
CITY           SKY/WX    TMP DP  RH WIND       PRES   REMARKS
PROVIDENCE     LGT RAIN  63  60  90 N9        29.99S                  
NEWPORT        LGT RAIN  63  62  97 N5        29.97S                  
BLOCK ISLAND   CLOUDY    62  59  90 N8        29.99R                  
SMITHFIELD     LGT RAIN  61  59  93 NW6       30.00S                  
WESTERLY       LGT RAIN  62  61  96 VRB3      29.99S                  
$$
 
CTZALL-171200-
CONNECTICUT
  
CITY           SKY/WX    TMP DP  RH WIND       PRES   REMARKS
BRADLEY INTL   LGT RAIN  65  58  78 N3        30.02R                  
HARTFORD       LGT RAIN  65  63  93 CALM      30.02R                  
BRIDGEPORT     PTCLDY    68  56  65 N6        30.02R                  
DANBURY        MOCLDY    63  56  78 CALM      30.05R                  
GROTON         LGT RAIN  64  61  90 NW6       30.00R                  
NEW HAVEN      CLOUDY    67  62  84 N5        30.03R                  
CHESTER        LGT RAIN  63  61  94 CALM      30.02S                  
MERIDEN        LGT RAIN  63  59  87 CALM      30.02S                  
WILLIMANTIC    HVY RAIN  61  60  97 W5        30.01F FOG              
OXFORD         LGT RAIN  62  58  86 CALM      30.05R                  
$$

MEZ002-015-021-024-NHZ003-005-008-011-012-014-VTZ005-008-171200-
NORTHERN NEW ENGLAND
  
CITY           SKY/WX    TMP DP  RH WIND       PRES   REMARKS
PORTLAND ME    CLOUDY    66  58  75 N8        30.02R                  
BANGOR ME      CLOUDY    65  60  84 N15       30.04F                  
CONCORD NH     SUNNY     65  58  78 NW3       30.03R                  
MANCHESTER NH  CLOUDY    68  58  70 N7        30.01R                  
NASHUA NH      CLOUDY    65  63  93 NW6       30.02R                  
PORTSMOUTH NH  CLOUDY    67  56  67 N8        30.00R                  
JAFFREY NH     CLOUDY    63  56  78 CALM      30.05S                  
KEENE NH       CLOUDY    60  58  92 CALM        N/A                   
BURLINGTON VT  MOCLDY    63  59  87 NE3       30.09S                  
MT. WASHINGTON FOG       43  43 100 NE37G43     N/A  VSB 0   WCI  31  
$$

NYZ052-076-171200-
EASTERN NEW YORK
  
CITY           SKY/WX    TMP DP  RH WIND       PRES   REMARKS
ALBANY         CLOUDY    65  62  90 CALM      30.06R                  
NEW YORK CITY  PTCLDY    69  54  58 NE5       30.02R                  
$$
 
ANZALL-171200-
MARINE OBSERVATIONS
  
STATION/POSITION TIME  TEMP    WIND        PRES    VSBY  WAVE
                       AIR SEA DIR/SP/G                  HT/PER
                 (UTC) (F)     (DEG/KT/KT) (MB)    (MI)  (FT/S)
BOSTON BUOY      NOT AVBL
BUZZARDS BAY     NOT AVBL
NANTUCKET SOUND  NOT AVBL
MASS BAY-STELLWA NOT AVBL
ISLE OF SHOALS   NOT AVBL
S OF BLOCK IS    NOT AVBL
$$

......................KEY.........................
  SKY/WX - SKY CONDITION/PRESENT WEATHER
  TMP    - TEMPERATURE IN FAHRENHEIT
  DWPT   - DEWPOINT IN FAHRENHEIT
  RH     - RELATIVE HUMIDITY IN PERCENT
  WIND   - DIRECTION AND SPEED IN MPH
  PRES   - MEAN SEA LEVEL PRESSURE IN INCHES OF HG
  WCI    - WIND CHILL INDEX
  VSB    - VISIBILITY IN MILES
  HX     - HEAT INDEX
  TC     - TEMPERATURE IN CELSIUS
  VRB    - VARIABLE WIND DIRECTION
  N/A    - NOT AVAILABLE
  
      

Other recent Regional Weather Roundups

Wed Aug 17, 6:10pm

Wed Aug 17, 5:10pm

Wed Aug 17, 4:10pm

Wed Aug 17, 3:10pm

Wed Aug 17, 2:10pm

Wed Aug 17, 1:10pm

Wed Aug 17, 12:10pm

Wed Aug 17, 11:10am

Wed Aug 17, 10:10am

Wed Aug 17, 9:10am

Wed Aug 17, 8:10am

Wed Aug 17, 6:10am

Wed Aug 17, 5:10am

Wed Aug 17, 4:10am

Wed Aug 17, 3:10am

Wed Aug 17, 2:10am

Wed Aug 17, 1:10am

Wed Aug 17, 12:10am

Tue Aug 16, 11:10pm

Tue Aug 16, 10:10pm

Tue Aug 16, 9:10pm

Tue Aug 16, 8:10pm

Tue Aug 16, 7:10pm

Tue Aug 16, 6:10pm

Tue Aug 16, 5:10pm

Tue Aug 16, 4:10pm

Tue Aug 16, 3:10pm

Tue Aug 16, 2:10pm

Tue Aug 16, 1:10pm

Tue Aug 16, 12:10pm

Tue Aug 16, 11:10am

Tue Aug 16, 10:10am

Tue Aug 16, 9:10am

Tue Aug 16, 8:10am

Tue Aug 16, 7:10am

Tue Aug 16, 6:10am

Tue Aug 16, 5:10am

Tue Aug 16, 4:10am

Tue Aug 16, 3:10am

Tue Aug 16, 2:10am

Tue Aug 16, 1:10am

Tue Aug 16, 12:10am

Mon Aug 15, 11:10pm

Mon Aug 15, 10:10pm

Mon Aug 15, 9:10pm

Mon Aug 15, 8:10pm

Mon Aug 15, 7:10pm

Mon Aug 15, 6:10pm

Mon Aug 15, 5:10pm

Mon Aug 15, 4:10pm

Mon Aug 15, 3:10pm

Mon Aug 15, 2:10pm

Mon Aug 15, 1:10pm

Mon Aug 15, 12:10pm

Mon Aug 15, 11:10am

Mon Aug 15, 10:10am

Mon Aug 15, 9:10am

Mon Aug 15, 8:10am

Mon Aug 15, 7:10am

Mon Aug 15, 6:10am

Mon Aug 15, 5:10am

Mon Aug 15, 4:10am

Mon Aug 15, 3:10am

Mon Aug 15, 2:10am

Mon Aug 15, 1:10am

Mon Aug 15, 12:10am

Sun Aug 14, 11:10pm

Sun Aug 14, 10:10pm

Sun Aug 14, 9:10pm

Sun Aug 14, 8:10pm

Sun Aug 14, 7:10pm

Sun Aug 14, 6:10pm

Sun Aug 14, 5:10pm

Sun Aug 14, 4:10pm

Sun Aug 14, 3:10pm

Sun Aug 14, 2:10pm

Sun Aug 14, 1:10pm

Sun Aug 14, 12:10pm

Sun Aug 14, 11:10am

Sun Aug 14, 10:10am

Sun Aug 14, 9:10am

Sun Aug 14, 8:10am

Sun Aug 14, 7:10am

Sun Aug 14, 6:10am

Sun Aug 14, 5:10am

Sun Aug 14, 4:10am

Sun Aug 14, 3:10am

Sun Aug 14, 2:10am

Sun Aug 14, 1:10am

Sun Aug 14, 12:10am

Sat Aug 13, 11:10pm

Sat Aug 13, 10:10pm

Sat Aug 13, 9:10pm

Sat Aug 13, 8:10pm

Sat Aug 13, 7:10pm

Sat Aug 13, 6:10pm

Sat Aug 13, 5:10pm

Sat Aug 13, 4:10pm

Sat Aug 13, 3:10pm

Sat Aug 13, 2:10pm

Sat Aug 13, 1:10pm

Sat Aug 13, 12:10pm

Sat Aug 13, 11:10am

Sat Aug 13, 10:10am

Sat Aug 13, 9:10am

Sat Aug 13, 8:10am

Sat Aug 13, 7:10am

Sat Aug 13, 6:10am

Sat Aug 13, 5:10am

Sat Aug 13, 4:10am

Sat Aug 13, 3:10am

Sat Aug 13, 2:10am

Sat Aug 13, 1:10am

Sat Aug 13, 12:10am

Fri Aug 12, 11:10pm

Fri Aug 12, 10:10pm

Fri Aug 12, 9:10pm

Fri Aug 12, 8:10pm

Fri Aug 12, 7:10pm

Fri Aug 12, 6:10pm

Fri Aug 12, 5:10pm

Fri Aug 12, 4:10pm

Fri Aug 12, 3:10pm

Fri Aug 12, 2:10pm

Fri Aug 12, 1:10pm

Fri Aug 12, 12:10pm

Fri Aug 12, 11:10am

Fri Aug 12, 10:10am

Fri Aug 12, 9:10am

Fri Aug 12, 8:10am

Fri Aug 12, 7:10am

Fri Aug 12, 6:10am

Fri Aug 12, 5:10am

Fri Aug 12, 4:10am

Fri Aug 12, 3:10am

Fri Aug 12, 2:10am

Fri Aug 12, 1:10am

Fri Aug 12, 12:10am

Thu Aug 11, 11:10pm

Thu Aug 11, 10:10pm

Thu Aug 11, 9:10pm

Thu Aug 11, 8:10pm

Thu Aug 11, 7:10pm

Thu Aug 11, 6:10pm

Thu Aug 11, 5:10pm

Thu Aug 11, 4:10pm

Thu Aug 11, 3:10pm

Thu Aug 11, 2:10pm

Thu Aug 11, 1:10pm

Thu Aug 11, 12:10pm

Thu Aug 11, 11:10am

Thu Aug 11, 10:10am

Thu Aug 11, 9:10am

Thu Aug 11, 8:10am

Thu Aug 11, 7:10am

Thu Aug 11, 6:10am

Thu Aug 11, 5:10am

Thu Aug 11, 4:10am

Thu Aug 11, 3:10am

Thu Aug 11, 2:10am

Thu Aug 11, 1:10am

Thu Aug 11, 12:10am

Wed Aug 10, 11:10pm

Wed Aug 10, 10:10pm

Wed Aug 10, 9:10pm

Wed Aug 10, 8:10pm

Wed Aug 10, 7:10pm

Meta data:

ID: 0d5a815a-e284-4ab0-91cc-feae1390e5e0
Link: https://api.weather.gov/products/0d5a815a-e284-4ab0-91cc-feae1390e5e0